Regional Weather Roundup
Issued by NWS Boston, MA

Current Version | Previous Version | Text Only | Print | Product List | Glossary On
Versions: 1 2 3 4 5 6 7 8 9 10 11 12 13 14 15 16 17 18 19 20 21 22 23 24 25 26 27 28 29 30 31 32 33 34 35 36 37 38 39 40 41 42 43 44 45 46 47 48 49 50
000
ASUS41 KBOX 281410
RWRBOX

REGIONAL WEATHER ROUNDUP
NATIONAL WEATHER SERVICE TAUNTON MA
900 AM EST SAT FEB 28 2015

NOTE:  "FAIR" INDICATES FEW OR NO CLOUDS BELOW 12,000 FEET WITH NO
SIGNIFICANT WEATHER AND/OR OBSTRUCTIONS TO VISIBILITY.  THE FOLLOWING
OBSERVATION LOCATIONS DO NOT REPORT PRESENT WEATHER...PROVINCETOWN...
SMITHFIELD...BLOCK ISLAND...KEENE...AND OXFORD.

MAZALL-281500-
EASTERN MASSACHUSETTS

CITY           SKY/WX    TMP DP  RH WIND       PRES   REMARKS
BOSTON         SUNNY     16  -1  47 NW9       30.75R WCI   4
BEVERLY        SUNNY     15  -2  46 NW6       30.72R WCI   6
LAWRENCE       SUNNY     13  -1  54 W5        30.74R WCI   5
BEDFORD        SUNNY     14  -2  49 W9        30.73R WCI   2
BLUE HILL        N/A     12  -1  56 NW12      30.67R WCI  -2
NORWOOD        SUNNY     15  -2  46 NW6       30.75R WCI   6
MARSHFIELD     SUNNY     21   1  42 NW7       30.76R WCI  13
PLYMOUTH       SUNNY     14  -2  49 NW6       30.74R WCI   5
TAUNTON        SUNNY     16   2  54 NW5       30.74R WCI   9
NEW BEDFORD    SUNNY     19  -2  39 VRB5      30.74R WCI  12
$$

MAZALL-281500-
CAPE COD AND THE ISLANDS

CITY           SKY/WX    TMP DP  RH WIND       PRES   REMARKS
FALMOUTH       SUNNY     16  -2  45 NW7       30.73R WCI   6
HYANNIS        SUNNY     21   9  59 N12       30.71R WCI   9
CHATHAM        SUNNY     25   9  50 N7        30.73R WCI  17
PROVINCETOWN   SUNNY     21   9  58 NW9       30.73R WCI  11
NANTUCKET      SUNNY     23  13  65 NW13      30.73R WCI  11
MARTHAS VNYRD  SUNNY     18  -2  41 N12       30.74R WCI   5
$$

MAZALL-281500-
CENTRAL AND WESTERN MASSACHUSETTS

CITY           SKY/WX    TMP DP  RH WIND       PRES   REMARKS
WORCESTER      SUNNY     12  -2  53 NW10      30.66R WCI  -1
FITCHBURG      SUNNY     16  -2  45 W9        30.73R WCI   4
ORANGE         SUNNY      3  -2  79 CALM      30.73R
SPRINGFIELD    SUNNY      7  -4  61 CALM      30.76R
WESTFIELD      SUNNY     11   0  61 CALM      30.76R
NORTH ADAMS    SUNNY      7  -2  66 W5        30.75R WCI  -2
PITTSFIELD     SUNNY      7  -1  70 W8        30.67R WCI  -6
$$

RIZALL-281500-
RHODE ISLAND

CITY           SKY/WX    TMP DP  RH WIND       PRES   REMARKS
PROVIDENCE     SUNNY     17  -1  45 N9        30.76R WCI   6
NEWPORT        SUNNY     15   2  56 N9        30.74R WCI   3
BLOCK ISLAND   SUNNY     18   5  57 N9        30.74R WCI   6
SMITHFIELD     SUNNY     14  -4  44 NW7       30.71R WCI   4
WESTERLY       SUNNY     17   0  47 N10       30.77R WCI   5
$$

CTZALL-281500-
CONNECTICUT

CITY           SKY/WX    TMP DP  RH WIND       PRES   REMARKS
BRADLEY INTL   SUNNY     15  -1  49 CALM      30.78R
HARTFORD       SUNNY     14   0  53 NW9       30.80R WCI   2
BRIDGEPORT     SUNNY     17   2  51 N7        30.81R WCI   8
DANBURY        SUNNY     14  -2  49 N9        30.78R WCI   2
GROTON         SUNNY     16   2  54 N15       30.77R WCI   1
NEW HAVEN      SUNNY     16   1  51 N7        30.79R WCI   6
CHESTER        FAIR      18   1  49 NW9       30.75R WCI   6
MERIDEN        SUNNY     15   0  51 N8        30.80R WCI   4
WILLIMANTIC    SUNNY     12  -1  56 CALM      30.77R
OXFORD         SUNNY     10  -6  48 N10       30.74R WCI  -3
$$

MEZ002-015-021-024-NHZ003-005-008-011-012-014-VTZ005-008-281500-
NORTHERN NEW ENGLAND

CITY           SKY/WX    TMP DP  RH WIND       PRES   REMARKS
PORTLAND ME    SUNNY     10  -4  53 W5        30.71R WCI   2
BANGOR ME      SUNNY     13  -6  42 W6        30.66R WCI   4
CONCORD NH     FLURRIES  11  -4  51 NW5       30.71R WCI   3
MANCHESTER NH  SUNNY     15   0  51 CALM      30.71R
NASHUA NH      SUNNY     14  -2  49 NW5       30.73R WCI   6
PORTSMOUTH NH  SUNNY     13  -5  44 W5        30.70R WCI   6
JAFFREY NH     SUNNY      8  -3  61 S5        30.65R WCI   0
KEENE NH       SUNNY      0  -4  85 CALM      30.72R
BURLINGTON VT  SUNNY      4  -6  63 S5        30.74R WCI  -5
MT. WASHINGTON MOSUNNY    3 -13  47 NW21        N/A  WCI -18
$$

NYZ052-076-281500-
EASTERN NEW YORK

CITY           SKY/WX    TMP DP  RH WIND       PRES   REMARKS
ALBANY         SUNNY     11  -1  58 W8        30.80R WCI  -1
NEW YORK CITY  MOSUNNY   19  -1  41 VRB3      30.82R
$$

ANZALL-281500-
MARINE OBSERVATIONS

STATION/POSITION TIME  TEMP    WIND        PRES    VSBY  WAVE
                       AIR SEA DIR/SP/G                  HT/PER
                 (UTC) (F)     (DEG/KT/KT) (MB)    (MI)  (FT/S)
BOSTON BUOY      1350   18 36  320/ 12/ 16 1040.8R         3/10
BUZZARDS BAY     1400          340/  7/  9 1041.8R
NANTUCKET SOUND  1350   21 30  340/ 10/ 14 1040.9R         1/10
MASS BAY-STELLWA 1304   16 36  300/ 14/ 17   N/A    1 7/8  4/11
ISLE OF SHOALS   1400   16     310/ 12/ 14 1039.3R
S OF BLOCK IS    NOT AVBL
$$

......................KEY.........................
  SKY/WX - SKY CONDITION/PRESENT WEATHER
  TMP    - TEMPERATURE IN FAHRENHEIT
  DWPT   - DEWPOINT IN FAHRENHEIT
  RH     - RELATIVE HUMIDITY IN PERCENT
  WIND   - DIRECTION AND SPEED IN MPH
  PRES   - MEAN SEA LEVEL PRESSURE IN INCHES OF HG
  WCI    - WIND CHILL INDEX
  VSB    - VISIBILITY IN MILES
  HX     - HEAT INDEX
  TC     - TEMPERATURE IN CELSIUS
  VRB    - VARIABLE WIND DIRECTION
  N/A    - NOT AVAILABLE



USA.gov is the U.S. government's official web portal to all federal, state and local government web resources and services.